Weather History for KN60 - March, 2013

Change the Weather History Date:

Wednesday, March 27, 2013

  Actual Average (KMOT) Record (KMOT)
Temperature  
Mean Temperature 18 °F 34 °F  
Max Temperature 32 °F 43 °F 78 °F (1946)
Min Temperature 3 °F 24 °F -17 °F (1921)
Degree Days  
Heating Degree Days 47 31  
Month to date heating degree days 1345 1015  
Since 1 July heating degree days 7971 7591  
Cooling Degree Days 0 0  
Month to date cooling degree days 0 0  
Year to date cooling degree days 0 0  
Moisture  
Dew Point 13 °F    
Average Humidity 87    
Maximum Humidity 96    
Minimum Humidity 78    
Precipitation  
Precipitation 0.00 in 0.03 in 1.07 in (1950)
Month to date precipitation 0.95 0.69  
Year to date precipitation 2.04 1.60  
Sea Level Pressure  
Sea Level Pressure 30.26 in    
Wind  
Wind Speed 7 mph (East)    
Max Wind Speed 15 mph    
Max Gust Speed 16 mph    
T = Trace of Precipitation, MM = Missing Value Source: NWS Daily Summary

Daily Weather History Graph

Daily Weather History Graph

Search for Another Location

Airport or City:

Trip Planner

Search our weather history database for the weather conditions in past years. The results will help you decide how hot, cold, wet, or windy it might be!

Date:

Astronomy

Mar. 27, 2013 Rise Set
Actual Time 7:33 AM CDT 8:08 PM CDT
Civil Twilight 7:02 AM CDT 8:40 PM CDT
Nautical Twilight 6:26 AM CDT 9:16 PM CDT
Astronomical Twilight 5:47 AM CDT 9:55 PM CDT
Moon 9:01 PM CDT (3/27) 7:22 AM CDT (3/27)
Length of Visible Light 13h 37m
Length of Day
12h 35m
Full, 100% of the Moon is Illuminated
Mar 27
Full
Apr 2
Last Quarter
Apr 10
New
Apr 18
First Quarter
Apr 25
Full

Hourly Weather History & Observations

Time (CDT) Temp. Windchill Dew Point Humidity Pressure Visibility Wind Dir Wind Speed Gust Speed Precip Events Conditions
12:52 AM 9.0 °F -2.2 °F 7.0 °F 92% 30.28 in - East 6.9 mph - N/A   Unknown
1:52 AM 9.0 °F -0.9 °F 6.1 °F 88% 30.27 in - East 5.8 mph - N/A   Unknown
2:52 AM 7.0 °F -5.7 °F 3.9 °F 87% 30.26 in - East 8.1 mph - N/A   Unknown
3:52 AM 6.1 °F -2.8 °F 3.0 °F 87% 30.25 in - East 4.6 mph - N/A   Unknown
4:52 AM 5.0 °F -5.6 °F 1.9 °F 87% 30.25 in - East 5.8 mph - N/A   Unknown
5:52 AM 5.0 °F -5.6 °F 1.9 °F 87% 30.26 in - East 5.8 mph - N/A   Unknown
6:52 AM 3.9 °F -3.4 °F 1.0 °F 88% 30.27 in - East 3.5 mph - N/A   Unknown
7:52 AM 3.9 °F -6.9 °F 1.0 °F 88% 30.28 in - East 5.8 mph - N/A   Unknown
8:52 AM 5.0 °F -2.1 °F 3.0 °F 92% 30.29 in - East 3.5 mph - N/A   Unknown
9:52 AM 10.9 °F 1.4 °F 8.1 °F 88% 30.29 in - East 5.8 mph - N/A   Unknown
10:52 AM 16.0 °F 7.4 °F 12.9 °F 88% 30.28 in - ESE 5.8 mph - N/A   Unknown
11:52 AM 19.9 °F 11.1 °F 16.0 °F 85% 30.28 in - ESE 6.9 mph - N/A   Unknown
12:52 PM 25.0 °F 15.5 °F 19.9 °F 81% 30.27 in - ESE 9.2 mph - N/A   Unknown
1:52 PM 28.0 °F 20.0 °F 23.0 °F 81% 30.25 in - East 8.1 mph - N/A   Unknown
2:52 PM 30.0 °F 22.4 °F 24.1 °F 79% 30.25 in - East 8.1 mph - N/A   Unknown
3:52 PM 30.9 °F 22.2 °F 25.0 °F 79% 30.23 in - East 10.4 mph - N/A   Unknown
4:52 PM 30.9 °F 21.7 °F 26.1 °F 82% 30.23 in - East 11.5 mph - N/A   Unknown
5:52 PM 30.0 °F 21.1 °F 25.0 °F 82% 30.23 in - East 10.4 mph - N/A   Unknown
6:52 PM 28.0 °F 17.5 °F 23.0 °F 81% 30.24 in - East 12.7 mph - N/A   Unknown
7:52 PM 25.0 °F 15.5 °F 21.0 °F 85% 30.25 in - East 9.2 mph - N/A   Unknown
8:52 PM 23.0 °F 13.1 °F 19.9 °F 88% 30.25 in - East 9.2 mph - N/A   Unknown
9:52 PM 21.0 °F 10.6 °F 18.0 °F 88% 30.25 in - East 9.2 mph - N/A   Unknown
10:52 PM 18.0 °F 8.7 °F 16.0 °F 92% 30.26 in - East 6.9 mph - N/A   Unknown
11:52 PM 19.0 °F 12.3 °F 17.1 °F 92% 30.25 in - NE 4.6 mph - N/A   Unknown